Location: ???????
(38.3360°N, 23.6977°E)
Time: 22:59:25
(UTC+00:00)

YAOGAN 1 - Pass Details

Date: 17 November 2025
Orbit: 605 x 607 km, 97.8° (Epoch: 09 December)

Event Time Altitude Azimuth Distance (km) Brightness Sun altitude
Rises 16:25:35 0° 148° (SSE) 2,851 5.8 -14.7°
Reaches altitude 10° 16:27:51 10° 141° (SE) 1,952 4.9 -15.1°
Maximum altitude 16:31:47 39° 72° (ENE) 919 2.9 -15.8°
Drops below altitude 10° 16:35:45 10° 4° (N) 1,964 5.0 -16.6°
Sets 16:38:02 0° 357° (N) 2,871 5.9 -17.0°
